B302F EDDF-EDDF

Flight info

Callsign B302F
Flight time 0h 11m
Altitude 8000
Route DCT
Aircraft A20N/M-V/N

Departure

Time 2026-04-19 03:20
Airport Frankfurt Main Airport (EDDF)

Arrival

Time 2026-04-19 03:31
Airport Frankfurt Main Airport (EDDF)
Time Latitude Longitude Altitude Speed Heading
2026-04-19 03:10 50.04635 8.56669 371 ft 0 kts 114°
2026-04-19 03:11 50.04640 8.56652 371 ft 2 kts 118°
2026-04-19 03:11 50.04646 8.56631 371 ft 2 kts 113°
2026-04-19 03:11 50.04652 8.56610 371 ft 2 kts 120°
2026-04-19 03:11 50.04661 8.56590 371 ft 2 kts 129°
2026-04-19 03:12 50.04671 8.56573 371 ft 2 kts 137°
2026-04-19 03:12 50.04681 8.56558 371 ft 1 kts 136°
2026-04-19 03:12 50.04691 8.56554 371 ft 2 kts 199°
2026-04-19 03:12 50.04705 8.56560 371 ft 1 kts 201°
2026-04-19 03:13 50.04714 8.56570 371 ft 1 kts 238°
2026-04-19 03:13 50.04718 8.56583 371 ft 0 kts 236°
2026-04-19 03:13 50.04720 8.56587 371 ft 0 kts 233°
2026-04-19 03:16 50.04713 8.56572 371 ft 15 kts 229°
2026-04-19 03:16 50.04543 8.56427 371 ft 29 kts 215°
2026-04-19 03:16 50.04464 8.56155 371 ft 27 kts 250°
2026-04-19 03:16 50.04353 8.56050 371 ft 21 kts 163°
2026-04-19 03:17 50.04306 8.56224 371 ft 20 kts 68°
2026-04-19 03:17 50.04376 8.56515 371 ft 41 kts 69°
2026-04-19 03:17 50.04491 8.56990 371 ft 46 kts 67°
2026-04-19 03:17 50.04598 8.57449 371 ft 43 kts 69°
2026-04-19 03:18 50.04696 8.57857 371 ft 31 kts 72°
2026-04-19 03:18 50.04630 8.58008 371 ft 15 kts 155°
2026-04-19 03:18 50.04528 8.58061 371 ft 9 kts 161°
2026-04-19 03:18 50.04517 8.58068 371 ft 0 kts 160°
2026-04-19 03:19 50.04505 8.58074 371 ft 2 kts 159°
2026-04-19 03:19 50.04481 8.58089 371 ft 6 kts 159°
2026-04-19 03:19 50.04435 8.58114 371 ft 8 kts 169°
2026-04-19 03:19 50.04355 8.58033 371 ft 18 kts 250°
2026-04-19 03:20 50.04246 8.57570 371 ft 88 kts 250°
2026-04-19 03:20 50.03932 8.56284 452 ft 155 kts 253°
2026-04-19 03:20 50.03534 8.54665 1097 ft 169 kts 253°
2026-04-19 03:20 50.03119 8.52942 1929 ft 178 kts 253°
2026-04-19 03:21 50.02575 8.51222 2815 ft 187 kts 234°
2026-04-19 03:21 50.01439 8.50146 3570 ft 208 kts 197°
2026-04-19 03:21 49.99943 8.50315 4225 ft 232 kts 161°
2026-04-19 03:21 49.98431 8.51521 4669 ft 261 kts 149°
2026-04-19 03:22 49.96893 8.53022 4951 ft 261 kts 148°
2026-04-19 03:22 49.95416 8.54680 4975 ft 261 kts 135°
2026-04-19 03:22 49.94485 8.57029 4980 ft 259 kts 109°
2026-04-19 03:22 49.93997 8.59720 4994 ft 258 kts 98°
2026-04-19 03:23 49.93893 8.62497 4992 ft 255 kts 81°
2026-04-19 03:23 49.94252 8.65186 4997 ft 254 kts 68°
2026-04-19 03:23 49.94891 8.67713 4997 ft 252 kts 64°
2026-04-19 03:23 49.95619 8.70215 5003 ft 254 kts 62°
2026-04-19 03:24 49.96346 8.72687 5002 ft 251 kts 62°
2026-04-19 03:24 49.97076 8.75155 5005 ft 253 kts 62°
2026-04-19 03:24 49.97812 8.77657 5003 ft 251 kts 62°
2026-04-19 03:24 49.98544 8.80128 5001 ft 253 kts 60°
2026-04-19 03:25 49.99579 8.82244 4595 ft 248 kts 33°
2026-04-19 03:25 50.01160 8.83172 3877 ft 240 kts
2026-04-19 03:25 50.02745 8.83493 3593 ft 224 kts
2026-04-19 03:25 50.04236 8.83822 3468 ft 209 kts
2026-04-19 03:26 50.05654 8.84218 3342 ft 209 kts
2026-04-19 03:26 50.07090 8.84675 3217 ft 207 kts
2026-04-19 03:26 50.08467 8.85010 2987 ft 199 kts 353°
2026-04-19 03:26 50.09614 8.84150 2887 ft 176 kts 310°
2026-04-19 03:27 50.10033 8.82480 2812 ft 162 kts 277°
2026-04-19 03:27 50.09828 8.80805 2686 ft 152 kts 255°
2026-04-19 03:27 50.09467 8.79317 2565 ft 149 kts 253°
2026-04-19 03:27 50.09085 8.77770 2477 ft 153 kts 254°
2026-04-19 03:28 50.08711 8.76210 2367 ft 154 kts 254°
2026-04-19 03:28 50.08335 8.74647 2267 ft 152 kts 254°
2026-04-19 03:28 50.07970 8.73127 2121 ft 149 kts 254°
2026-04-19 03:28 50.07616 8.71664 1997 ft 136 kts 254°
2026-04-19 03:29 50.07289 8.70300 1926 ft 136 kts 255°
2026-04-19 03:29 50.06960 8.68923 1752 ft 134 kts 255°
2026-04-19 03:29 50.06633 8.67558 1574 ft 135 kts 255°
2026-04-19 03:29 50.06308 8.66205 1403 ft 133 kts 254°
2026-04-19 03:30 50.05983 8.64862 1202 ft 134 kts 254°
2026-04-19 03:30 50.05654 8.63515 988 ft 133 kts 254°
2026-04-19 03:30 50.05330 8.62159 803 ft 135 kts 255°
2026-04-19 03:30 50.05000 8.60778 662 ft 138 kts 254°
2026-04-19 03:31 50.04668 8.59363 476 ft 135 kts 255°
2026-04-19 03:31 50.04359 8.58061 372 ft 122 kts 253°
2026-04-19 03:31 50.04121 8.57041 371 ft 75 kts 250°
2026-04-19 03:31 50.04097 8.56719 371 ft 11 kts
2026-04-19 03:32 50.04184 8.56773 371 ft 12 kts 14°
2026-04-19 03:32 50.04226 8.56695 371 ft 16 kts 257°
2026-04-19 03:32 50.04167 8.56443 371 ft 25 kts 249°
2026-04-19 03:32 50.04117 8.56228 371 ft 19 kts 249°
2026-04-19 03:33 50.04174 8.56062 371 ft 21 kts 341°
2026-04-19 03:33 50.04362 8.56049 371 ft 22 kts 342°
2026-04-19 03:33 50.04455 8.56126 371 ft 17 kts 70°
2026-04-19 03:33 50.04503 8.56330 371 ft 26 kts 69°
2026-04-19 03:34 50.04607 8.56476 371 ft 14 kts
2026-04-19 03:34 50.04658 8.56428 371 ft 6 kts 283°
2026-04-19 03:34 50.04631 8.56280 371 ft 16 kts 251°
2026-04-19 03:34 50.04651 8.56184 371 ft 10 kts 341°
2026-04-19 03:35 50.04693 8.56162 371 ft 1 kts 340°
2026-04-19 03:35 50.04706 8.56155 371 ft 3 kts 339°
2026-04-19 03:35 50.04710 8.56152 371 ft 0 kts 339°
2026-04-19 03:47 50.04697 8.56160 371 ft 2 kts 339°
2026-04-19 03:47 50.04683 8.56168 371 ft 2 kts 339°
2026-04-19 03:47 50.04669 8.56177 371 ft 2 kts 339°
2026-04-19 03:48 50.04655 8.56185 371 ft 2 kts 339°
2026-04-19 03:48 50.04641 8.56193 371 ft 2 kts 339°
2026-04-19 03:48 50.04627 8.56202 371 ft 2 kts 339°
2026-04-19 03:48 50.04617 8.56211 371 ft 1 kts 296°
2026-04-19 03:49 50.04617 8.56231 371 ft 1 kts 243°
2026-04-19 03:49 50.04623 8.56249 371 ft 0 kts 252°
2026-04-19 03:49 50.04623 8.56253 371 ft 0 kts 253°
2026-04-19 03:51 50.04622 8.56247 371 ft 3 kts 252°
2026-04-19 03:51 50.04594 8.56120 371 ft 20 kts 248°
2026-04-19 03:51 50.04508 8.55944 371 ft 21 kts 196°
2026-04-19 03:52 50.04365 8.55915 371 ft 20 kts 165°
2026-04-19 03:52 50.04240 8.56025 371 ft 20 kts 150°
2026-04-19 03:52 50.04107 8.56089 371 ft 20 kts 191°
2026-04-19 03:52 50.04018 8.55823 371 ft 43 kts 252°
2026-04-19 03:53 50.03922 8.55397 371 ft 40 kts 252°
2026-04-19 03:53 50.03824 8.55004 371 ft 37 kts 249°
2026-04-19 03:53 50.03734 8.54634 371 ft 35 kts 250°
2026-04-19 03:53 50.03650 8.54286 371 ft 33 kts 250°
2026-04-19 03:54 50.03572 8.53948 371 ft 32 kts 249°
2026-04-19 03:54 50.03495 8.53632 371 ft 33 kts 250°
2026-04-19 03:54 50.03405 8.53260 371 ft 36 kts 251°
2026-04-19 03:54 50.03319 8.52897 371 ft 34 kts 250°
2026-04-19 03:55 50.03272 8.52705 371 ft 15 kts 249°
2026-04-19 03:55 50.03190 8.52593 371 ft 18 kts 190°
2026-04-19 03:55 50.03144 8.52589 371 ft 1 kts 180°
2026-04-19 03:55 50.02797 8.52599 371 ft 98 kts 180°
2026-04-19 03:56 50.01840 8.52605 427 ft 167 kts 180°
2026-04-19 03:56 50.00661 8.52603 1141 ft 175 kts 176°
2026-04-19 03:56 49.99499 8.53276 1887 ft 192 kts 138°
2026-04-19 03:56 49.98793 8.55078 2553 ft 214 kts 104°
2026-04-19 03:57 49.98503 8.57602 2747 ft 252 kts 95°
2026-04-19 03:57 49.98407 8.60396 2701 ft 268 kts 82°
2026-04-19 03:57 49.98786 8.63357 3196 ft 300 kts 73°
2026-04-19 03:57 49.99388 8.66674 3772 ft 336 kts 70°
2026-04-19 03:58 50.00127 8.70057 3967 ft 329 kts 69°
2026-04-19 03:58 50.00883 8.73382 3970 ft 327 kts 68°
2026-04-19 03:58 50.01650 8.76736 3974 ft 327 kts 68°
2026-04-19 03:58 50.02411 8.80059 3977 ft 327 kts 68°
2026-04-19 03:59 50.03216 8.83372 3971 ft 326 kts 62°
2026-04-19 03:59 50.04607 8.86039 3963 ft 320 kts 36°
2026-04-19 03:59 50.06477 8.87988 3976 ft 319 kts 30°
2026-04-19 03:59 50.08371 8.89804 3977 ft 319 kts 30°
2026-04-19 04:00 50.09605 8.91033 3974 ft 314 kts 31°
2026-04-19 04:00 50.12032 8.92889 3945 ft 275 kts
2026-04-19 04:00 50.13829 8.92471 3930 ft 254 kts 332°
2026-04-19 04:00 50.14994 8.90655 3940 ft 228 kts 295°
2026-04-19 04:01 50.15111 8.88312 3960 ft 220 kts 254°
2026-04-19 04:01 50.13374 8.84372 3916 ft 223 kts 233°
2026-04-19 04:01 50.12364 8.82531 3678 ft 222 kts 232°
2026-04-19 04:02 50.11365 8.80727 3388 ft 220 kts 232°
2026-04-19 04:02 50.10389 8.78968 3103 ft 209 kts 232°
2026-04-19 04:02 50.09479 8.77325 2942 ft 193 kts 233°
2026-04-19 04:02 50.08725 8.75669 2701 ft 177 kts 242°
2026-04-19 04:03 50.08185 8.74024 2461 ft 166 kts 250°
2026-04-19 04:03 50.07782 8.72442 2215 ft 152 kts 253°
2026-04-19 04:03 50.07433 8.70942 1995 ft 142 kts 254°
2026-04-19 04:03 50.07100 8.69504 1817 ft 142 kts 254°
2026-04-19 04:04 50.06759 8.68059 1639 ft 142 kts 253°
2026-04-19 04:04 50.06411 8.66612 1458 ft 142 kts 253°
2026-04-19 04:04 50.06068 8.65190 1274 ft 142 kts 253°
2026-04-19 04:04 50.05720 8.63743 1074 ft 142 kts 253°
2026-04-19 04:05 50.05376 8.62313 839 ft 141 kts 253°
2026-04-19 04:05 50.05036 8.60897 652 ft 141 kts 253°
2026-04-19 04:05 50.04693 8.59469 492 ft 141 kts 252°
2026-04-19 04:05 50.04356 8.58058 376 ft 134 kts 253°
2026-04-19 04:06 50.04087 8.56896 371 ft 88 kts 250°
2026-04-19 04:06 50.03938 8.56280 371 ft 42 kts 250°
2026-04-19 04:06 50.03880 8.55927 371 ft 23 kts 274°
2026-04-19 04:06 50.03905 8.55684 371 ft 13 kts 282°
2026-04-19 04:07 50.03943 8.55612 371 ft 3 kts 329°
2026-04-19 04:07 50.03956 8.55570 371 ft 25 kts 277°
2026-04-19 04:07 50.03832 8.55054 371 ft 37 kts 252°
2026-04-19 04:07 50.03825 8.54919 371 ft 2 kts
2026-04-19 04:08 50.03894 8.54985 371 ft 16 kts
2026-04-19 04:08 50.03976 8.54945 371 ft 11 kts 315°
2026-04-19 04:08 50.03956 8.54841 371 ft 12 kts 183°
2026-04-19 04:08 50.03894 8.54876 371 ft 0 kts 161°